Weather Roundup
Issued by NWS

Home | Current Version | Previous Version | Text Only | Print | Product List | Glossary On
Versions: 1 2 3 4 5 6 7 8 9 10 11 12 13 14 15 16 17 18 19 20 21 22 23 24 25 26 27 28 29 30 31 32 33 34 35 36 37 38 39 40 41 42 43 44 45 46 47 48 49 50
287
NZUS93 KARX 040810
HRRWXR

CURRENT HOURLY OBSERVATIONS ACROSS
MUCH OF THE UPPER MISSISSIPPI VALLEY
NATIONAL WEATHER SERVICE LA CROSSE WI
300 AM CDT WED MAY 04 2016


...SOUTHEAST MINNESOTA...


CITY           SKY/WX    TMP DP  RH WIND       PRES   REMARKS
ROCHESTER      CLEAR     49  39  68 N15       29.84R
ROCHESTER/MAYO FAIR      50  37  61 N8G18     29.84R
WINONA         CLEAR     52  37  58 N6G16     29.82R
AUSTIN         CLEAR     48  37  66 N7        29.83R
ALBERT LEA     CLEAR     52  32  46 N10       29.84R
DODGE CENTER   PTCLDY    46  34  61 N8        29.85R
PRESTON        CLEAR     46  39  76 N9        29.81R
OWATONNA       CLEAR     52  32  46 N13       29.86R
FARIBAULT      CLEAR     52  34  50 N9        29.88R
$$

...ELSEWHERE IN MINNESOTA...


CITY           SKY/WX    TMP DP  RH WIND       PRES   REMARKS
MINNEAPOLIS    CLEAR     52  32  46 NE14      29.90R
INTNL FALLS    CLEAR     38  31  76 NW6       29.95S WCI  33
DULUTH         CLEAR     42  30  62 NW6       29.90S
RED WING       CLEAR     50  32  50 N9        29.86R
REDWOOD FALLS  CLEAR     49  30  48 N8        29.93R
MANKATO        CLEAR     50  30  46 N12       29.89R
WORTHINGTON    CLEAR     45  33  63 N12       29.93R
FAIRMONT       CLEAR     48  28  46 N13       29.88R
$$

...SOUTHWEST WISCONSIN...


CITY           SKY/WX    TMP DP  RH WIND       PRES   REMARKS
LA CROSSE      CLEAR     49  42  77 N10       29.79R
PRAIRIE DU CHI PTCLDY    48  47  96 NW5       29.75R
LONE ROCK      CLEAR     48  45  89 N10       29.73R
PLATTEVILLE    CLEAR     44  44  99 NW6       29.71S
FORT MC COY    MOCLDY    42  42 100 N6        29.78R
CAMP DOUGLAS   MOCLDY    41  41 100 NW5       29.76R FOG
MAUSTON-NEW LI MOSUNNY   44  44  99 NW6       29.75R FOG
VIROQUA        FAIR      45  45 100 N9        29.75S
WIS DELLS      CLEAR     45  43  94 N7        29.72S
$$

...ELSEWHERE IN WISCONSIN...


CITY           SKY/WX    TMP DP  RH WIND       PRES   REMARKS
MILWAUKEE      CLOUDY    49  46  90 N9        29.65S
MADISON        CLEAR     45  43  93 N8        29.69R
GREEN BAY      LGT RAIN  45  40  82 N10       29.71S
EAU CLAIRE     CLEAR     46  34  62 N12       29.84R
BLACK RVR FLS  CLOUDY    47  39  74 N9G16     29.79R
MEDFORD        CLEAR     39  37  89 N9        29.80S WCI  33
WAUSAU         CLOUDY    44  38  79 N10       29.77R
WIS RAPIDS     CLEAR     43  39  86 N13G24    29.78R
MARSHFIELD     CLOUDY    45  38  76 N10G22    29.78R
RICE LAKE      CLEAR     45  32  60 N6        29.89R
$$

...NORTHEAST IOWA...


CITY           SKY/WX    TMP DP  RH WIND       PRES   REMARKS
WATERLOO       CLEAR     50  43  77 N13       29.76R
DUBUQUE        FOG       45  45 100 N6        29.71S VSB 1/4
DECORAH        CLEAR     50  43  76 N7        29.77R
MASON CITY     CLEAR     45  34  65 NW9       29.84R
CHARLES CITY   CLEAR     50  41  71 N10       29.80R
OELWEIN        CLEAR     50  46  87 N12       29.76R
$$

...ELSEWHERE IN IOWA...


CITY           SKY/WX    TMP DP  RH WIND       PRES   REMARKS
DES MOINES     PTCLDY    55  35  47 NW10      29.78S
IOWA CITY      CLEAR     49  47  93 NE3       29.72R
FORT DODGE     CLEAR     48  34  57 N8        29.85R
MARSHALLTOWN   CLEAR     49  38  65 N13       29.76R
CEDAR RAPIDS   CLEAR     47  45  93 N6        29.71R
$$

...NORTHERN ILLINOIS...


CITY           SKY/WX    TMP DP  RH WIND       PRES   REMARKS
CHICAGO-OHARE  RAIN      50  47  89 N7        29.64F FOG
CHICAGO-MIDWAY LGT RAIN  51  47  86 N8        29.64S FOG
MOLINE         CLEAR     49  46  90 NW3       29.69R
ROCKFORD       CLOUDY    47  44  90 NW7       29.68R
PEORIA         LGT RAIN  50  47  89 NE8       29.72S
$$

NOTE: "FAIR" INDICATES FEW OR NO CLOUDS BELOW 12,000 FEET WITH NO
SIGNIFICANT WEATHER AND/OR OBSTRUCTIONS TO VISIBILITY. WIND
SPEEDS ARE IN MILES-PER-HOUR.




USA.gov is the U.S. government's official web portal to all federal, state and local government web resources and services.